DW5683 Weather Reports


time (UTC)temp
C
wind
direction
speed
KPH
gust
KPH
rain 1hr
cm
rain 24hr
cm
rain mn
cm
humidity
%
barometer
mb
20260905120129 10 0 0.0 0.0 0.00 0.00 0.00 90 1013.5
20260905114547 10 0 0.0 0.0 0.00 0.00 0.00 90 1013.5
20260905113048 10 0 0.0 0.0 0.00 0.00 0.00 90 1013.5
20260905111554 10 0 0.0 0.0 0.00 0.00 0.00 90 1013.7
20260905110056 10 0 0.0 0.0 0.00 0.00 0.00 89 1013.8
20260905104545 10 0 0.0 0.0 0.00 0.03 0.00 89 1013.7
20260905103052 10 0 0.0 0.0 0.00 0.03 0.00 89 1013.9
20260905101545 10 0 0.0 0.0 0.00 0.03 0.00 88 1014.1
20260905100053 10 0 0.0 0.0 0.00 0.03 0.00 88 1014.0
20260905094549 10 0 0.0 0.0 0.00 0.05 0.00 88 1014.1
20260905093043 10 0 0.0 0.0 0.00 0.05 0.00 88 1014.0
20260905091612 10 0 0.0 0.0 0.00 0.05 0.00 87 1013.9
20260905090051 11 0 0.0 0.0 0.00 0.05 0.00 86 1013.8
20260905084554 11 0 0.0 0.0 0.00 0.13 0.00 86 1014.1
20260905083045 11 0 0.0 0.0 0.00 0.13 0.00 86 1013.9
20260905081542 11 0 0.0 0.0 0.00 0.13 0.00 85 1013.9
20260905080048 11 0 0.0 0.0 0.00 0.13 0.00 85 1013.6
20260905074547 11 0 0.0 0.0 0.00 0.18 0.00 84 1013.6
20260905073050 12 0 0.0 0.0 0.00 0.18 0.00 84 1013.5
20260905071545 12 0 0.0 0.0 0.00 0.18 0.00 82 1013.4
20260905070048 12 0 0.0 0.0 0.00 0.18 0.00 82 1013.4
20260905064546 12 0 0.0 0.0 0.00 0.18 0.18 80 1013.2
20260905063041 13 0 0.0 0.0 0.00 0.18 0.18 80 1013.2
20260905061606 13 0 0.0 0.0 0.00 0.18 0.18 80 1013.1
20260905060054 13 0 0.0 0.0 0.00 0.18 0.18 78 1013.2
20260905054543 13 0 0.0 0.0 0.00 0.28 0.18 77 1013.4
20260905053043 14 0 0.0 0.0 0.00 0.28 0.18 75 1013.4
20260905051542 14 0 0.0 0.0 0.00 0.28 0.18 73 1013.4
20260905050048 15 0 0.0 0.0 0.00 0.28 0.18 72 1013.5
20260905044543 15 0 0.0 0.0 0.00 0.30 0.18 70 1013.5
20260905043043 16 0 0.0 0.0 0.00 0.30 0.18 67 1013.3
20260905041559 16 0 0.0 0.0 0.00 0.30 0.18 65 1013.2
20260905040049 16 0 0.0 0.0 0.00 0.30 0.18 69 1012.9
20260905034553 17 0 0.0 0.0 0.00 0.30 0.18 67 1012.8
20260905033041 18 0 0.0 0.0 0.00 0.30 0.18 64 1012.7
20260905031547 19 0 0.0 0.0 0.00 0.30 0.18 61 1012.6
20260905030045 20 0 0.0 0.0 0.00 0.30 0.18 56 1012.4
20260905024541 22 0 0.0 3.2 0.00 0.30 0.18 47 1012.3
20260905023049 23 0 0.0 3.2 0.00 0.30 0.18 45 1012.1
20260905021552 23 220 1.6 4.8 0.00 0.30 0.18 43 1012.1
20260905020043 24 220 0.0 4.8 0.00 0.30 0.18 41 1012.1
20260905014542 24 220 1.6 6.4 0.00 0.30 0.18 41 1012.3
20260905013050 24 220 0.0 4.8 0.00 0.30 0.18 40 1012.0
20260905011547 25 0 1.6 8.0 0.00 0.30 0.18 39 1012.0
20260905010043 25 0 1.6 4.8 0.00 0.30 0.18 40 1012.0
20260905004548 25 0 0.0 12.9 0.00 0.30 0.18 39 1011.9
20260905003044 25 0 0.0 6.4 0.00 0.30 0.18 39 1012.0
20260905001553 26 0 0.0 8.0 0.00 0.30 0.18 39 1012.0
20260905000042 26 0 1.6 8.0 0.00 0.30 0.18 39 1012.1
20260904234548 26 249 1.6 11.3 0.00 0.30 0.18 39 1012.3
20260904233101 25 0 1.6 6.4 0.00 0.30 0.18 39 1012.3
20260904231553 26 189 3.2 8.0 0.00 0.30 0.18 40 1012.5
20260904230045 26 209 0.0 8.0 0.00 0.30 0.18 39 1012.5
20260904224556 25 211 3.2 16.1 0.00 0.30 0.18 43 1012.7
20260904223101 26 107 1.6 12.9 0.00 0.30 0.18 40 1012.9
20260904221545 26 0 3.2 9.7 0.00 0.30 0.18 43 1012.9
20260904220055 26 249 1.6 12.9 0.00 0.30 0.18 43 1012.9
20260904214547 26 0 0.0 11.3 0.00 0.30 0.18 46 1012.9
20260904213048 25 239 4.8 14.5 0.00 0.30 0.18 48 1012.9
20260904211546 24 170 1.6 14.5 0.00 0.30 0.18 47 1012.9
20260904210059 25 0 1.6 9.7 0.00 0.30 0.18 49 1012.9
20260904204549 23 182 1.6 12.9 0.00 0.30 0.18 52 1012.9
20260904203100 23 128 3.2 8.0 0.00 0.30 0.18 54 1013.0
20260904201549 23 119 1.6 9.7 0.00 0.30 0.18 53 1013.2
20260904200049 22 76 0.0 6.4 0.00 0.30 0.18 55 1013.3
20260904194543 22 103 1.6 9.7 0.00 0.30 0.18 56 1013.5
20260904193047 22 138 1.6 16.1 0.00 0.30 0.18 61 1013.6
20260904191553 21 112 1.6 11.3 0.00 0.30 0.18 59 1013.8
20260904190047 22 95 1.6 9.7 0.00 0.30 0.18 58 1013.7
20260904184541 21 146 1.6 11.3 0.00 0.30 0.18 62 1013.8
20260904183050 21 0 1.6 6.4 0.00 0.30 0.18 65 1013.8
20260904181544 20 98 1.6 9.7 0.00 0.30 0.18 68 1013.8
20260904180042 19 0 3.2 11.3 0.00 0.30 0.18 71 1013.8
20260904174550 18 117 0.0 9.7 0.00 0.30 0.18 74 1013.8
20260904173053 18 109 1.6 9.7 0.00 0.30 0.18 76 1013.7
20260904171542 18 0 1.6 12.9 0.00 0.30 0.18 76 1013.7
20260904170045 18 0 1.6 11.3 0.00 0.30 0.18 77 1013.5
20260904164549 17 109 3.2 11.3 0.00 0.30 0.18 80 1013.4
20260904163049 17 136 3.2 12.9 0.00 0.30 0.18 85 1013.3
20260904161543 16 124 3.2 8.0 0.00 0.30 0.18 91 1013.3
20260904160052 15 108 3.2 9.7 0.00 0.30 0.18 92 1013.2
20260904154548 15 134 1.6 4.8 0.00 0.30 0.18 92 1013.1
20260904153044 15 136 1.6 4.8 0.00 0.30 0.18 92 1013.1
20260904151544 15 140 0.0 3.2 0.00 0.30 0.18 92 1013.0
20260904150051 15 0 0.0 4.8 0.00 0.30 0.18 93 1012.9
20260904144605 15 0 0.0 4.8 0.00 0.30 0.18 92 1012.8
20260904143055 15 139 0.0 6.4 0.00 0.30 0.18 92 1012.6
20260904141542 15 0 1.6 6.4 0.00 0.30 0.18 92 1012.3
20260904140049 15 0 0.0 0.0 0.00 0.30 0.18 92 1012.1
20260904134549 15 0 0.0 0.0 0.00 0.30 0.18 92 1011.9
20260904133046 15 0 0.0 3.2 0.00 0.30 0.18 92 1011.7
20260904131540 15 115 0.0 6.4 0.00 0.30 0.18 92 1011.6
20260904130048 15 109 0.0 6.4 0.00 0.30 0.18 92 1011.6
20260904124543 15 0 0.0 4.8 0.00 0.30 0.18 92 1011.5
20260904123041 15 0 0.0 1.6 0.00 0.28 0.15 92 1011.5
20260904121541 15 0 0.0 3.2 0.00 0.28 0.15 92 1011.4